• In Russia
  • List of Countries
  • For 7 days
  • Water Temperature
  • Satellite Maps
  • Weather Map
  • Weather Widgets
  • user-avatar
    Login

    Hourly Weather Graz

    Today, 17 August, Friday

    Time Temperature Precipitation Wind Pressure Humidity
    00:00 +18°C° 0 mm 1 mps 724 mmHg 79%
    01:00 +18°C° 0 mm 1 mps 724 mmHg 77%
    02:00 +16°C° 0 mm 1 mps 724 mmHg 78%
    03:00 +16°C° 0 mm 1 mps 724 mmHg 79%
    04:00 +16°C° 0 mm 1 mps 724 mmHg 80%
    05:00 +18°C° 0 mm 1 mps 724 mmHg 76%
    06:00 +19°C° 0 mm 1 mps 724 mmHg 73%
    07:00 +19°C° 0 mm 0 mps 724 mmHg 69%
    08:00 +23°C° 0 mm 1 mps 725 mmHg 61%
    09:00 +26°C° 0 mm 1 mps 725 mmHg 54%
    10:00 +28°C° 0 mm 1 mps 725 mmHg 47%
    11:00 +29°C° 0 mm 1 mps 725 mmHg 45%
    12:00 +29°C° 0 mm 1 mps 725 mmHg 43%
    13:00 +29°C° 0 mm 1 mps 725 mmHg 43%
    14:00 +29°C° 0.1 mm 1 mps 724 mmHg 45%
    15:00 +29°C° 0.1 mm 1 mps 724 mmHg 47%
    16:00 +29°C° 0.1 mm 1 mps 724 mmHg 50%
    17:00 +27°C° 0.1 mm 1 mps 724 mmHg 57%
    18:00 +22°C° 0.1 mm 0 mps 724 mmHg 65%
    19:00 +20°C° 0.1 mm 0 mps 724 mmHg 73%
    20:00 +20°C° 0 mm 0 mps 724 mmHg 75%
    21:00 +21°C° 0 mm 1 mps 725 mmHg 77%
    22:00 +20°C° 0 mm 1 mps 725 mmHg 79%
    23:00 +20°C° 0 mm 1 mps 725 mmHg 80%

    Tomorrow, 18 August, Saturday

    Time Temperature Precipitation Wind Pressure Humidity
    00:00 +19°C° 0 mm 1 mps 725 mmHg 81%
    01:00 +19°C° 0 mm 1 mps 725 mmHg 82%
    02:00 +19°C° 0 mm 1 mps 725 mmHg 83%
    03:00 +19°C° 0 mm 1 mps 726 mmHg 83%
    04:00 +18°C° 0 mm 1 mps 726 mmHg 84%
    05:00 +20°C° 0 mm 1 mps 726 mmHg 81%
    06:00 +21°C° 0 mm 1 mps 726 mmHg 78%
    07:00 +22°C° 0 mm 1 mps 726 mmHg 75%
    08:00 +24°C° 0.1 mm 1 mps 727 mmHg 67%
    09:00 +27°C° 0.1 mm 1 mps 727 mmHg 59%
    10:00 +29°C° 0.1 mm 1 mps 727 mmHg 51%
    11:00 +29°C° 0.3 mm 1 mps 727 mmHg 50%
    12:00 +30°C° 0.3 mm 1 mps 727 mmHg 48%
    13:00 +30°C° 0.3 mm 1 mps 727 mmHg 47%
    14:00 +30°C° 0.3 mm 1 mps 727 mmHg 49%
    15:00 +30°C° 0.3 mm 1 mps 727 mmHg 51%
    16:00 +29°C° 0.3 mm 1 mps 726 mmHg 53%
    17:00 +27°C° 0.2 mm 1 mps 726 mmHg 58%
    18:00 +26°C° 0.2 mm 1 mps 726 mmHg 63%
    19:00 +24°C° 0.2 mm 1 mps 726 mmHg 68%
    20:00 +23°C° 0 mm 1 mps 727 mmHg 70%
    21:00 +22°C° 0 mm 1 mps 727 mmHg 72%
    22:00 +22°C° 0 mm 1 mps 727 mmHg 73%
    23:00 +21°C° 0 mm 1 mps 727 mmHg 74%

    Day after tomorrow, 19 August, Sunday

    Time Temperature Precipitation Wind Pressure Humidity
    00:00 +21°C° 0 mm 1 mps 727 mmHg 75%
    01:00 +21°C° 0 mm 1 mps 727 mmHg 76%
    02:00 +20°C° 0 mm 1 mps 727 mmHg 76%
    03:00 +20°C° 0 mm 1 mps 727 mmHg 77%
    04:00 +20°C° 0 mm 1 mps 727 mmHg 77%
    05:00 +21°C° 0 mm 1 mps 727 mmHg 76%
    06:00 +22°C° 0 mm 1 mps 728 mmHg 74%
    07:00 +23°C° 0 mm 1 mps 728 mmHg 73%
    08:00 +25°C° 0 mm 1 mps 728 mmHg 64%
    09:00 +27°C° 0 mm 1 mps 728 mmHg 56%
    10:00 +29°C° 0 mm 1 mps 728 mmHg 47%
    11:00 +29°C° 0.1 mm 1 mps 728 mmHg 46%
    12:00 +30°C° 0.1 mm 1 mps 728 mmHg 45%
    13:00 +30°C° 0.1 mm 1 mps 727 mmHg 44%
    14:00 +30°C° 0.1 mm 1 mps 727 mmHg 45%
    15:00 +30°C° 0.1 mm 1 mps 727 mmHg 46%
    16:00 +30°C° 0.1 mm 1 mps 726 mmHg 47%
    17:00 +28°C° 0.1 mm 1 mps 726 mmHg 53%
    18:00 +26°C° 0.1 mm 1 mps 726 mmHg 60%
    19:00 +24°C° 0.1 mm 1 mps 726 mmHg 66%
    20:00 +23°C° 0 mm 1 mps 726 mmHg 67%
    21:00 +22°C° 0 mm 1 mps 726 mmHg 69%
    22:00 +22°C° 0 mm 1 mps 727 mmHg 70%
    23:00 +21°C° 0 mm 1 mps 727 mmHg 71%

    20 August, Monday

    Time Temperature Precipitation Wind Pressure Humidity
    00:00 +21°C° 0 mm 1 mps 726 mmHg 73%
    01:00 +20°C° 0 mm 1 mps 726 mmHg 74%
    02:00 +20°C° 0 mm 1 mps 726 mmHg 74%
    03:00 +20°C° 0 mm 1 mps 726 mmHg 75%
    04:00 +20°C° 0 mm 1 mps 726 mmHg 76%
    05:00 +21°C° 0 mm 1 mps 726 mmHg 74%
    06:00 +22°C° 0 mm 1 mps 726 mmHg 73%
    07:00 +23°C° 0 mm 1 mps 727 mmHg 71%
    08:00 +25°C° 0.1 mm 1 mps 727 mmHg 64%
    09:00 +27°C° 0.1 mm 1 mps 727 mmHg 56%
    10:00 +30°C° 0.1 mm 1 mps 727 mmHg 48%
    11:00 +30°C° 0.1 mm 1 mps 727 mmHg 47%
    12:00 +31°C° 0.1 mm 1 mps 726 mmHg 45%
    13:00 +31°C° 0.1 mm 1 mps 726 mmHg 43%
    14:00 +31°C° 0.3 mm 1 mps 726 mmHg 45%
    15:00 +31°C° 0.3 mm 1 mps 726 mmHg 46%
    16:00 +30°C° 0.3 mm 1 mps 725 mmHg 48%
    17:00 +28°C° 0.3 mm 1 mps 725 mmHg 54%
    18:00 +26°C° 0.3 mm 1 mps 725 mmHg 61%
    19:00 +24°C° 0.3 mm 1 mps 725 mmHg 68%
    20:00 +23°C° 0.3 mm 1 mps 725 mmHg 71%
    21:00 +23°C° 0.3 mm 1 mps 725 mmHg 74%
    22:00 +22°C° 0.3 mm 1 mps 726 mmHg 76%
    23:00 +21°C° 0.2 mm 1 mps 726 mmHg 78%

    21 August, Tuesday

    Time Temperature Precipitation Wind Pressure Humidity
    00:00 +21°C° 0.2 mm 1 mps 726 mmHg 80%
    01:00 +20°C° 0.2 mm 1 mps 726 mmHg 82%
    02:00 +20°C° 0.2 mm 1 mps 726 mmHg 83%
    03:00 +20°C° 0.2 mm 1 mps 726 mmHg 84%
    04:00 +20°C° 0.2 mm 1 mps 726 mmHg 86%
    05:00 +21°C° 0.1 mm 1 mps 726 mmHg 84%
    06:00 +22°C° 0.1 mm 1 mps 726 mmHg 83%
    07:00 +22°C° 0.1 mm 1 mps 727 mmHg 81%
    08:00 +25°C° 0.2 mm 1 mps 727 mmHg 72%
    09:00 +27°C° 0.2 mm 1 mps 727 mmHg 63%
    10:00 +29°C° 0.2 mm 1 mps 727 mmHg 54%
    11:00 +30°C° 0.4 mm 1 mps 727 mmHg 53%
    12:00 +31°C° 0.4 mm 1 mps 727 mmHg 51%
    13:00 +31°C° 0.4 mm 1 mps 726 mmHg 49%
    14:00 +31°C° 0.3 mm 1 mps 726 mmHg 51%
    15:00 +30°C° 0.3 mm 1 mps 726 mmHg 52%
    16:00 +28°C° 0.3 mm 0 mps 726 mmHg 54%
    17:00 +26°C° 0.3 mm 0 mps 726 mmHg 59%
    18:00 +24°C° 0.3 mm 0 mps 726 mmHg 65%
    19:00 +22°C° 0.3 mm 0 mps 726 mmHg 70%
    20:00 +23°C° 0.2 mm 1 mps 726 mmHg 73%
    21:00 +23°C° 0.2 mm 1 mps 726 mmHg 76%
    22:00 +22°C° 0.2 mm 1 mps 726 mmHg 79%
    23:00 +21°C° 0.1 mm 1 mps 726 mmHg 80%

    22 August, Wednesday

    Time Temperature Precipitation Wind Pressure Humidity
    00:00 +21°C° 0.1 mm 1 mps 726 mmHg 81%
    01:00 +20°C° 0.1 mm 1 mps 726 mmHg 83%
    02:00 +20°C° 0 mm 1 mps 726 mmHg 83%
    03:00 +20°C° 0 mm 1 mps 726 mmHg 84%
    04:00 +20°C° 0 mm 1 mps 726 mmHg 84%
    05:00 +21°C° 0 mm 1 mps 726 mmHg 82%
    06:00 +22°C° 0 mm 1 mps 726 mmHg 80%
    07:00 +23°C° 0 mm 1 mps 727 mmHg 77%
    08:00 +25°C° 0.2 mm 1 mps 727 mmHg 70%
    09:00 +27°C° 0.2 mm 1 mps 727 mmHg 63%
    10:00 +29°C° 0.2 mm 1 mps 727 mmHg 55%
    11:00 +30°C° 0.5 mm 1 mps 727 mmHg 54%
    12:00 +31°C° 0.5 mm 1 mps 726 mmHg 53%
    13:00 +31°C° 0.5 mm 1 mps 726 mmHg 52%
    14:00 +31°C° 0.6 mm 1 mps 726 mmHg 53%
    15:00 +30°C° 0.6 mm 1 mps 726 mmHg 54%
    16:00 +30°C° 0.6 mm 1 mps 725 mmHg 55%
    17:00 +28°C° 0.7 mm 1 mps 725 mmHg 60%
    18:00 +24°C° 0.7 mm 0 mps 725 mmHg 65%
    19:00 +22°C° 0.7 mm 0 mps 725 mmHg 70%
    20:00 +24°C° 0.8 mm 1 mps 725 mmHg 73%
    21:00 +23°C° 0.8 mm 1 mps 725 mmHg 76%
    22:00 +22°C° 0.8 mm 1 mps 725 mmHg 79%
    23:00 +22°C° 0.7 mm 1 mps 725 mmHg 81%
    Show more